星链-37148(STARLINK-37148)

导读

STARLINK-37148(NORAD编号68310)是美国SpaceX公司星链(Starlink)卫星互联网星座的一员,属于低地球轨道(LEO)通信卫星。星链项目旨在通过部署近万颗低轨卫星,为全球提供高速低延迟宽带互联网服务,尤其覆盖地面基础设施难以到达的偏远区域。该卫星配备氩气离子推进系统用于轨道机动与脱轨处置,采用相控阵天线技术实现高带宽通信,当前处于在轨运行状态,运行于近地轨道,参与构建全球卫星互联网通信网络,支撑星链的民用互联网接入及特殊场景通信服务。

基本信息
目录编号:
68310
目录名称:
STARLINK-37148
国际标识:
2026-057S
轨道中心:
EARTH
卫星名称:
星链-37148
卫星全名:
星链-37148(STARLINK-37148)
卫星状态:
在轨 (已飞行168 天)
发射日期:
2026-03-20 UTC
国别 :
美国 (US)
星等 :
--
轨道信息
数据来源 国际轨道数据
星历时间: 2026-09-04T02:26:17+0800
11小时前
查看轨道信息
半长轴: 6843.659km
偏心率: 0.0000207
轨道倾角: 97.287°
近地点辐角 121.074°
升交点赤经 12.469°
平近点角 239.053°
近地点: 465.38km
远地点: 465.664km
周期: 93.906分钟
每日圈数: 15.334522
详细信息
固有亮度:
5
最大亮度:
2.5
卫星平台:
Starlink V1.0
覆盖范围:
全球
运营商:
太空探索技术公司
运营商所在国:
美国
制造商(研发单位):
太空探索技术公司
制造商所在国:
美国
使用方式:
暂无
卫星简介
Starlink 计划是 SpaceX 推出的全球卫星互联网项目,通过发射低轨道卫星,为全球尤其是偏远地区提供高速、低延迟的互联网服务。自 2019 年起,Starlink 已部署数千颗卫星,旨在缩小全球数字鸿沟,推动互联网普及。该项目还为军事、航空等行业提供通信支持,带来广泛经济效益。
2D轨道图
3D轨道图
轨道高度分析图
轨道倾角分析图
轨道综合分析图
查看轨道综合分析图
交会数据列表
事件ID 空间交会对象 最接近时刻(TCA) 交会距离 交会风险概率(CRP) 交会风险指数(CRI) 操作
CDM_260830-203005-784306-831021
2026-08-30T
20:30:25+0000
2.850 km
极远距离
1.426205E-6 低风险 0.38
CDM_260830-190706-461506-831021
2026-08-30T
19:07:37+0000
2.791 km
极远距离
1.378664E-6 低风险 0.38
CDM_260827-183805-328706-831021
2026-08-27T
18:38:05+0000
2.954 km
极远距离
1.26978E-6 低风险 0.37
CDM_260903-204106-151506-831021
2026-09-03T
20:41:12+0000
2.702 km
极远距离
9.419289E-7 极低风险 0.34